timestamp,wind_dir_avg,wind_spd_avg,wind_spd_max_dir,wind_spd_gust,battery_voltage,lat,long
2023-04-19 00:04:00+00:00,130.0,6.27,117.0,9.97,12.57,47.59359,-54.27349
2023-04-19 00:14:01+00:00,139.0,5.6,142.0,6.18,12.33,47.59359,-54.27349
2023-04-19 00:24:01+00:00,115.0,7.24,108.0,10.4,12.33,47.59359,-54.27349
2023-04-19 00:34:01+00:00,117.0,7.29,115.0,9.96,12.33,47.59359,-54.27349
2023-04-19 00:44:01+00:00,115.0,10.47,116.0,11.68,12.33,47.59359,-54.27349
2023-04-19 00:54:01+00:00,122.0,10.31,119.0,11.78,12.33,47.59359,-54.27349
2023-04-19 01:04:01+00:00,112.0,10.45,115.0,11.47,12.33,47.59359,-54.27349
2023-04-19 01:14:00+00:00,115.0,10.98,118.0,12.52,12.33,47.59359,-54.27349
2023-04-19 01:24:00+00:00,113.0,9.5,111.0,11.1,12.33,47.59359,-54.27349
2023-04-19 01:34:00+00:00,116.0,10.22,116.0,11.78,12.33,47.59359,-54.27349
2023-04-19 01:44:00+00:00,112.0,7.02,110.0,10.51,12.33,47.59359,-54.27349
2023-04-19 01:54:00+00:00,113.0,4.92,104.0,9.13,12.33,47.59359,-54.27349
2023-04-19 02:04:00+00:00,102.0,3.31,104.0,9.09,12.33,47.59359,-54.27349
2023-04-19 02:14:00+00:00,107.0,5.4,117.0,10.63,12.25,47.59359,-54.27349
2023-04-19 02:24:00+00:00,111.0,4.8,114.0,9.66,12.25,47.59359,-54.27349
2023-04-19 02:34:00+00:00,110.0,5.32,113.0,9.44,12.25,47.59359,-54.27349
2023-04-19 02:44:00+00:00,107.0,5.35,98.0,9.51,12.25,47.59359,-54.27349
2023-04-19 02:54:00+00:00,95.0,4.66,92.0,9.27,12.25,47.59359,-54.27349
2023-04-19 03:04:00+00:00,94.0,6.63,94.0,9.7,12.25,47.59359,-54.27349
2023-04-19 03:14:00+00:00,92.0,4.54,95.0,9.72,12.25,47.59359,-54.27349
2023-04-19 03:24:00+00:00,109.0,3.16,119.0,6.41,12.25,47.59359,-54.27349
2023-04-19 03:34:00+00:00,95.0,3.57,92.0,8.84,12.25,47.59359,-54.27349
2023-04-19 03:44:00+00:00,96.0,2.73,81.0,8.04,12.25,47.59359,-54.27349
2023-04-19 03:54:00+00:00,56.0,1.74,52.0,3.8,12.25,47.59359,-54.27349
2023-04-19 04:04:00+00:00,69.0,1.43,71.0,3.62,12.25,47.59359,-54.27349
2023-04-19 04:14:01+00:00,92.0,3.26,97.0,9.05,12.25,47.59359,-54.27349
2023-04-19 04:24:01+00:00,84.0,2.31,79.0,3.43,12.25,47.59359,-54.27349
2023-04-19 04:34:01+00:00,103.0,3.26,103.0,4.72,12.25,47.59359,-54.27349
2023-04-19 04:44:01+00:00,98.0,3.27,103.0,7.89,12.25,47.59359,-54.27349
2023-04-19 04:54:01+00:00,85.0,3.33,93.0,8.51,12.25,47.59359,-54.27349
2023-04-19 05:04:01+00:00,97.0,1.81,82.0,3.4,12.25,47.59359,-54.27349
2023-04-19 05:14:00+00:00,79.0,2.89,85.0,7.14,12.17,47.59359,-54.27349
2023-04-19 05:24:00+00:00,93.0,3.04,88.0,4.37,12.17,47.59359,-54.27349
2023-04-19 05:34:00+00:00,78.0,4.03,88.0,7.4,12.17,47.59359,-54.27349
2023-04-19 05:44:00+00:00,83.0,2.22,105.0,3.82,12.17,47.59359,-54.27349
2023-04-19 05:54:00+00:00,94.0,3.4,97.0,8.92,12.17,47.59359,-54.27349
2023-04-19 06:04:00+00:00,104.0,5.1,104.0,9.02,12.17,47.59359,-54.27349
2023-04-19 06:14:01+00:00,92.0,3.97,103.0,9.34,12.17,47.59359,-54.27349
2023-04-19 06:24:01+00:00,80.0,4.08,87.0,8.83,12.17,47.59359,-54.27349
2023-04-19 06:34:01+00:00,92.0,3.62,95.0,8.43,12.17,47.59359,-54.27349
2023-04-19 06:44:01+00:00,87.0,3.43,105.0,6.13,12.17,47.59359,-54.27349
2023-04-19 06:54:01+00:00,83.0,3.58,96.0,8.66,12.17,47.59359,-54.27349
2023-04-19 07:04:01+00:00,90.0,5.41,72.0,9.87,12.17,47.59359,-54.27349
2023-04-19 07:14:01+00:00,80.0,3.81,82.0,4.7,12.17,47.59359,-54.27349
2023-04-19 07:24:01+00:00,82.0,4.85,93.0,9.38,12.17,47.59359,-54.27349
2023-04-19 07:34:01+00:00,77.0,3.56,71.0,6.21,12.17,47.59359,-54.27349
2023-04-19 07:44:01+00:00,84.0,3.68,96.0,9.44,12.17,47.59359,-54.27349
2023-04-19 07:54:01+00:00,82.0,3.41,85.0,7.31,12.17,47.59359,-54.27349
2023-04-19 08:04:01+00:00,84.0,3.83,93.0,9.2,12.17,47.59359,-54.27349
2023-04-19 08:14:01+00:00,101.0,3.38,96.0,5.8,12.09,47.59359,-54.27349
2023-04-19 08:24:01+00:00,91.0,2.74,93.0,4.33,12.09,47.59359,-54.27349
2023-04-19 08:34:01+00:00,101.0,3.39,95.0,5.54,12.09,47.59359,-54.27349
2023-04-19 08:44:01+00:00,111.0,3.01,130.0,4.37,12.09,47.59359,-54.27349
2023-04-19 08:54:01+00:00,103.0,2.43,138.0,4.79,12.09,47.59359,-54.27349
2023-04-19 09:04:01+00:00,108.0,3.27,125.0,6.06,12.09,47.59359,-54.27349
2023-04-19 09:14:00+00:00,98.0,2.93,129.0,4.43,12.09,47.59359,-54.27349
2023-04-19 09:24:00+00:00,96.0,4.85,96.0,9.96,12.09,47.59359,-54.27349
2023-04-19 09:34:00+00:00,102.0,3.87,116.0,9.61,12.09,47.59359,-54.27349
2023-04-19 09:44:00+00:00,97.0,5.13,96.0,10.78,12.09,47.59359,-54.27349
2023-04-19 09:54:00+00:00,84.0,2.84,92.0,4.19,12.09,47.59359,-54.27349
2023-04-19 10:04:00+00:00,99.0,2.74,100.0,4.32,12.09,47.59359,-54.27349
2023-04-19 10:14:01+00:00,102.0,3.15,83.0,4.69,12.09,47.59359,-54.27349
2023-04-19 10:24:01+00:00,92.0,2.93,94.0,9.05,12.09,47.59359,-54.27349
2023-04-19 10:34:01+00:00,99.0,2.93,77.0,6.19,12.09,47.59359,-54.27349
2023-04-19 10:44:01+00:00,105.0,3.96,91.0,8.94,12.09,47.59359,-54.27349
2023-04-19 10:54:01+00:00,114.0,3.83,120.0,6.91,12.09,47.59359,-54.27349
2023-04-19 11:04:01+00:00,113.0,5.38,110.0,9.84,12.09,47.59359,-54.27349
2023-04-19 11:14:00+00:00,87.0,2.91,68.0,4.76,12.57,47.59359,-54.27349
2023-04-19 11:24:00+00:00,75.0,2.73,96.0,3.98,12.57,47.59359,-54.27349
2023-04-19 11:34:00+00:00,100.0,3.59,113.0,8.05,12.57,47.59359,-54.27349
2023-04-19 11:44:00+00:00,114.0,3.41,128.0,4.88,12.57,47.59359,-54.27349
2023-04-19 11:54:00+00:00,120.0,4.33,108.0,7.62,12.57,47.59359,-54.27349
2023-04-19 12:04:00+00:00,118.0,3.46,133.0,4.99,12.57,47.59359,-54.27349
2023-04-19 12:14:00+00:00,99.0,2.31,101.0,3.77,13.05,47.59359,-54.27349
2023-04-19 12:24:00+00:00,94.0,1.96,84.0,3.07,13.05,47.59359,-54.27349
2023-04-19 12:34:00+00:00,82.0,1.63,92.0,2.53,13.05,47.59359,-54.27349
2023-04-19 12:44:00+00:00,76.0,1.63,78.0,2.32,13.05,47.59359,-54.27349
2023-04-19 12:54:00+00:00,97.0,1.35,106.0,2.07,13.05,47.59359,-54.27349
2023-04-19 13:04:00+00:00,97.0,1.25,92.0,2.3,13.05,47.59359,-54.27349
2023-04-19 13:14:01+00:00,90.0,0.8,113.0,1.26,13.37,47.59359,-54.27349
2023-04-19 13:24:01+00:00,46.0,0.8,55.0,0.94,13.37,47.59359,-54.27349
2023-04-19 13:34:01+00:00,71.0,1.04,87.0,1.88,13.37,47.59359,-54.27349
2023-04-19 13:44:01+00:00,92.0,0.66,101.0,1.14,13.37,47.59359,-54.27349
2023-04-19 13:54:01+00:00,95.0,1.29,92.0,2.18,13.37,47.59359,-54.27349
2023-04-19 14:04:01+00:00,113.0,1.72,133.0,2.61,13.37,47.59359,-54.27349
2023-04-19 14:14:00+00:00,126.0,3.67,123.0,4.62,13.53,47.59359,-54.27349
2023-04-19 14:24:00+00:00,126.0,3.78,123.0,4.58,13.53,47.59359,-54.27349
2023-04-19 14:34:00+00:00,123.0,3.97,124.0,4.41,13.53,47.59359,-54.27349
2023-04-19 14:44:00+00:00,120.0,2.58,121.0,3.88,13.53,47.59359,-54.27349
2023-04-19 14:54:00+00:00,120.0,3.6,118.0,4.11,13.53,47.59359,-54.27349
2023-04-19 15:04:00+00:00,123.0,3.02,123.0,3.45,13.53,47.59359,-54.27349
2023-04-19 15:14:00+00:00,117.0,2.31,126.0,3.06,13.68,47.59359,-54.27349
2023-04-19 15:24:00+00:00,119.0,1.92,118.0,2.36,13.68,47.59359,-54.27349
2023-04-19 15:34:00+00:00,101.0,1.8,121.0,3.05,13.68,47.59359,-54.27349
2023-04-19 15:44:00+00:00,94.0,1.39,115.0,2.76,13.68,47.59359,-54.27349
2023-04-19 15:54:00+00:00,110.0,2.26,115.0,4.16,13.68,47.59359,-54.27349
2023-04-19 16:04:00+00:00,99.0,2.23,93.0,4.33,13.68,47.59359,-54.27349
2023-04-19 16:14:00+00:00,91.0,2.08,97.0,4.38,13.6,47.59359,-54.27349
2023-04-19 16:24:00+00:00,94.0,3.49,86.0,5.35,13.6,47.59359,-54.27349
2023-04-19 16:34:00+00:00,98.0,4.42,110.0,6.25,13.6,47.59359,-54.27349
2023-04-19 16:44:00+00:00,94.0,2.72,92.0,6.07,13.6,47.59359,-54.27349
2023-04-19 16:54:00+00:00,111.0,5.53,112.0,6.77,13.6,47.59359,-54.27349
2023-04-19 17:04:00+00:00,135.0,7.36,128.0,8.8,13.6,47.59359,-54.27349
2023-04-19 17:14:00+00:00,118.0,6.15,117.0,7.5,13.68,47.59359,-54.27349
2023-04-19 17:24:00+00:00,111.0,5.68,110.0,7.21,13.68,47.59359,-54.27349
2023-04-19 17:34:00+00:00,107.0,4.69,107.0,6.04,13.68,47.59359,-54.27349
2023-04-19 17:44:00+00:00,117.0,7.16,119.0,7.73,13.68,47.59359,-54.27349
2023-04-19 17:54:00+00:00,118.0,5.16,115.0,6.5,13.68,47.59359,-54.27349
2023-04-19 18:04:00+00:00,130.0,6.18,126.0,8.54,13.68,47.59359,-54.27349
2023-04-19 18:14:01+00:00,134.0,6.52,127.0,7.85,13.68,47.59359,-54.27349
2023-04-19 18:24:01+00:00,137.0,7.34,137.0,8.6,13.68,47.59359,-54.27349
2023-04-19 18:34:01+00:00,144.0,7.1,144.0,7.57,13.68,47.59359,-54.27349
2023-04-19 18:44:01+00:00,134.0,4.66,125.0,6.24,13.68,47.59359,-54.27349
2023-04-19 18:54:01+00:00,127.0,3.96,119.0,4.97,13.68,47.59359,-54.27349
2023-04-19 19:04:01+00:00,106.0,2.67,91.0,4.64,13.68,47.59359,-54.27349
2023-04-19 19:14:00+00:00,109.0,3.07,98.0,5.43,13.6,47.59359,-54.27349
2023-04-19 19:24:00+00:00,86.0,2.15,84.0,4.29,13.6,47.59359,-54.27349
2023-04-19 19:34:00+00:00,102.0,1.09,109.0,2.02,13.6,47.59359,-54.27349
2023-04-19 19:44:00+00:00,100.0,2.48,110.0,4.11,13.6,47.59359,-54.27349
2023-04-19 19:54:00+00:00,80.0,1.29,88.0,2.15,13.6,47.59359,-54.27349
2023-04-19 20:04:00+00:00,65.0,2.73,71.0,3.26,13.6,47.59359,-54.27349
2023-04-19 20:14:00+00:00,61.0,2.39,71.0,3.06,13.37,47.59359,-54.27349
2023-04-19 20:24:00+00:00,73.0,3.07,82.0,4.17,13.37,47.59359,-54.27349
2023-04-19 20:34:00+00:00,71.0,3.31,69.0,4.1,13.37,47.59359,-54.27349
2023-04-19 20:44:00+00:00,52.0,3.45,55.0,3.8,13.37,47.59359,-54.27349
2023-04-19 20:54:00+00:00,58.0,3.85,64.0,4.43,13.37,47.59359,-54.27349
2023-04-19 21:04:00+00:00,68.0,2.88,70.0,3.61,13.37,47.59359,-54.27349
2023-04-19 21:14:01+00:00,74.0,3.63,84.0,4.52,13.13,47.59359,-54.27349
2023-04-19 21:24:01+00:00,77.0,3.52,60.0,4.73,13.13,47.59359,-54.27349
2023-04-19 21:34:01+00:00,79.0,3.24,73.0,4.75,13.13,47.59359,-54.27349
2023-04-19 21:44:01+00:00,72.0,4.09,68.0,5.15,13.13,47.59359,-54.27349
2023-04-19 21:54:01+00:00,81.0,3.45,82.0,5.24,13.13,47.59359,-54.27349
2023-04-19 22:04:01+00:00,76.0,3.36,99.0,4.42,13.13,47.59359,-54.27349
2023-04-19 22:14:01+00:00,86.0,3.15,90.0,4.92,12.65,47.59359,-54.27349
2023-04-19 22:24:01+00:00,76.0,3.42,52.0,4.53,12.65,47.59359,-54.27349
2023-04-19 22:34:01+00:00,81.0,3.4,76.0,5.64,12.65,47.59359,-54.27349
2023-04-19 22:44:01+00:00,76.0,3.15,62.0,5.16,12.65,47.59359,-54.27349
2023-04-19 22:54:01+00:00,81.0,2.95,78.0,4.63,12.65,47.59359,-54.27349
2023-04-19 23:04:01+00:00,90.0,2.63,105.0,4.3,12.65,47.59359,-54.27349
2023-04-19 23:14:00+00:00,88.0,1.8,80.0,3.85,12.33,47.59359,-54.27349
2023-04-19 23:24:00+00:00,54.0,1.41,56.0,4.03,12.33,47.59359,-54.27349
2023-04-19 23:34:00+00:00,76.0,1.53,97.0,3.72,12.33,47.59359,-54.27349
2023-04-19 23:44:00+00:00,24.0,0.79,61.0,4.01,12.33,47.59359,-54.27349
2023-04-19 23:54:00+00:00,72.0,1.73,79.0,3.81,12.33,47.59359,-54.27349
